FREGAT R/B, 45255

Orbit data source: Space-Track

FREGAT R/B, 45255 is space debris in HEO originally from a launch on Thu, 20 Feb 2020 UTC launched from the Plesetsk Missile And Space Complex (PKMTR). Debris objects in space refer to the collection of defunct objects orbiting the Earth. Examples of debris include non-operational satellites, rocket bodies, and fragments generated from explosions, collisions, or faulty payload assembly.

Loading next visibility...
Identifier
45255, 2020-015B
Orbit
HEO
Country
Flag of CISCIS
Related business
Manufacturer
Lavochkin
Mission
Spacecraft
Bus & Motor
FREGAT, Unknown motor
Mass
1,000 kg wet, 1,000 kg dry
Launch date (UTC)
2020-02-20 (6 years ago)
Launch vehicle
Unknown
Launch site
Plesetsk Missile And Space Complex (PKMTR)
Object type
Payload
Rocket body
Debris
Shape & HBR
Cyl, 1.7 m
Radar Cross Section
8.354 m², Large (>1 m²)

Expand to show TLE details & history
Last TLE update: 2 weeks ago

TLE from 2 weeks ago
0 FREGAT R/B
1 45255U 20015B   25287.32566824  .00001170  00000-0  00000-0 0  9998
2 45255  65.5415 339.7675 6970586 282.9227  13.1079  1.99813412 41242
Epoch: 2025-10-14T07:48Z
TLE epoch observation values (Epoch: 2025-10-14T07:48:57.735Z)
Latitude
-0.00014°
Longitude
-160.53822°
Altitude
5,508.475 km
Speed
7.218 km/s
True Right ascension
22h 39m 16s
True Declination
0° 00' 00"
Sunlit
Object was in daylight at epoch
Visualization orbit readout
Latitude
Unknown
Longitude
Unknown
Altitude
Unknown
Speed
Unknown
Apparent Right ascension
Unknown
Apparent Declination
Unknown
Sunlit
N/A
Visualization observer readout
Local Sidereal Time
16:24:51
Azimuth
Unknown
Elevation
Unknown
Doppler factor
Unknown
Orbital elements
Apogee altitude
38,807.258 km
Perigee altitude
1,687.894 km
Semi-major axis
26,625.713 km
Eccentricity
0.69706
Inclination
65.5415°
RAAN
339.7675°
Arg. of periapsis
282.9227°
True anomaly
77.27458°
Mean anomaly
13.1079°
Eccentric anomaly
37.32284°
Mean motion
0.49956 °/min
Orbital period
720.63 mins
BSTAR
0
Loading maneuver chart data...
Computing Atmospheric mass density...
Loading historical data...
Loading historical data...
Loading historical data...
Loading historical data...
Loading historical data...
Loading historical data...
Loading historical data...
Other satellites on launch #15 in the year 2020 (2020-02-20 UTC)

Documentation

Showing up to 5 results
|